Location: Dittelbrunn
(50.0738°N, 10.2196°E)
Time: 12:23:49
(UTC+00:00)

SJ-11-01 - Pass Details

Date: 18 September 2020
Orbit: 684 x 701 km, 98.0° (Epoch: 22 October)

Event Time Altitude Azimuth Distance (km) Brightness Sun altitude
Rises 18:03:53 0° 160° (SSE) 3,068 7.3 -7.0°
Reaches altitude 10° 18:06:08 10° 160° (SSE) 2,152 6.5 -7.3°
Maximum altitude 18:10:50 79° 75° (ENE) 713 4.3 -8.1°
Drops below altitude 10° 18:15:34 10° 348° (NNW) 2,158 7.2 -8.8°
Sets 18:17:49 0° 348° (NNW) 3,076 8.0 -9.2°
